Regional Weather Roundup
Issued by NWS

Home | Current Version | Previous Version | Graphics & Text | Print | Product List | Glossary On
Versions: 1 2 3 4 5 6 7 8 9 10 11 12 13 14 15 16 17 18 19 20 21 22 23 24 25 26 27 28 29 30 31 32 33 34 35 36 37 38 39 40 41 42 43 44 45 46 47 48 49 50
000
ASUS43 KLMK 110610
RWRKY
KENTUCKY REGIONAL WEATHER ROUNDUP
NATIONAL WEATHER SERVICE LOUISVILLE KY
100 AM EST SUN DEC 11 2016

NOTE "FAIR" INDICATES FEW OR NO CLOUDS BELOW 12,000 FEET
WITH NO SIGNIFICANT WEATHER AND/OR OBSTRUCTIONS TO VISIBILITY.

KYZ001>023-026-027-061>063-070>075-110700-
WESTERN AND SOUTH CENTRAL KENTUCKY

CITY           SKY/WX    TMP DP  RH WIND       PRES   REMARKS
PADUCAH        CLOUDY    38  16  40 S3        30.28F
HENDERSON      CLOUDY    34  18  51 CALM      30.31F
OWENSBORO      CLOUDY    33  19  56 S10       30.32F WCI  25
HOPKINSVILLE   CLOUDY    33  15  48 SE10      30.31F WCI  24
BOWLING GREEN  CLOUDY    25  18  74 CALM      30.36F
GLASGOW        CLOUDY    25  19  79 CALM      30.36F
$$

KYZ024-025-028>034-038-045-046-053-110700-
NORTH CENTRAL KENTUCKY

CITY           SKY/WX    TMP DP  RH WIND       PRES   REMARKS
LOUISVILLE/SDF CLOUDY    31  16  54 SE12      30.33F WCI  22
LOUISVILLE/LOU CLOUDY    32  16  51 S6        30.34F WCI  26
FORT KNOX      CLOUDY    29  17  59 SE6       30.30F WCI  23
$$

KYZ035>037-039>044-047>052-055>060-089>105-110700-
NORTHEAST KENTUCKY

CITY           SKY/WX    TMP DP  RH WIND       PRES   REMARKS
LEXINGTON      CLOUDY    29  16  58 SE7       30.35F WCI  22
COVINGTON      CLOUDY    29  17  61 SE7       30.35F WCI  22
FRANKFORT      CLOUDY    30  16  56 S7        30.35F WCI  23
$$

KYZ054-064>069-076>088-106>120-110700-
SOUTHEAST KENTUCKY

CITY           SKY/WX    TMP DP  RH WIND       PRES   REMARKS
JACKSON        CLOUDY    27  15  61 CALM      30.36F
LONDON         CLOUDY    24  17  74 CALM      30.37F
SOMERSET       CLOUDY    23  18  80 CALM      30.40S
MIDDLESBORO    CLOUDY    24  20  86 CALM      30.40S
MONTICELLO     CLOUDY    24  18  77 W10       30.39F WCI  14
$$





USA.gov is the U.S. government's official web portal to all federal, state and local government web resources and services.